Location: Newark
(51.2625°N, 13.3939°E)
Time: 23:48:51
(UTC+00:00)

Explorer 7 - Pass Details

Date: 20 November 2019
Orbit: 485 x 680 km, 50.3° (Epoch: 06 December)

Event Time Altitude Azimuth Distance (km) Brightness Sun altitude
Rises 00:50:15 0° 255° (WSW) 2,909 - -50.7°
Reaches altitude 10° 00:52:38 10° 254° (WSW) 1,971 - -50.4°
Maximum altitude 00:57:08 73° 170° (S) 617 - -49.9°
Drops below altitude 10° 01:01:21 10° 86° (E) 1,849 - -49.4°
Sets 01:03:31 0° 85° (E) 2,711 - -49.1°
